Location: Banska Bystrica
(48.7333°N, 19.1500°E)
Time: 10:45:11
(UTC+01:00)

ISS - Pass Details

Date: 28 January 2021
Orbit: 417 x 422 km, 51.6° (Epoch: 07 March)

Event Time Altitude Azimuth Distance (km) Brightness Sun altitude
Rises 18:49:26 0° 286° (WNW) 2,375 1.3 -22.1°
Reaches altitude 10° 18:51:33 10° 290° (WNW) 1,510 0.0 -22.4°
Enters shadow 18:54:02 41° 316° (NW) 622 -2.7 -22.8°
